[[{"header":{"parameterUnit":"m.s-1","parameterCategory":1,"la1":30.2991,"la2":30.254,"lo1":-89.0895,"lo2":-89.0444,"dx":0.0017,"dy":0.0017,"nx":28,"ny":28,"refTime":"2022-11-16T09:00:00:Z","depth":0,"parameterNumber":2,"parameterNumberName":"U-component_of_WINDS"},"data":[0,0,0,0,0,0,0,0,0,0,0,0,0,0,0,0,0,0,0,0,0,0,0,0,0,0,0,0,0,0,0,0,0,0,0,0,0,0,0,0,0,0,0,0,0,0,0,0,0,0,0,0,0,0,0,0,0,0,0.9311,0.931,0,0.9242,0.9241,0.924,0.9203,0.9203,0.9203,0.9203,0.9131,0.9129,0.9127,0,0,0,0,0,0,0,0,0,0,0,0,0,0.941,0.9409,0.9311,0.931,0.9309,0.9242,0.9241,0.924,0.9203,0.9203,0.9203,0.9203,0.9131,0.9129,0.9127,0,0,0,0,0,0,0,0,0,0,0,0,0,0.9357,0.9408,0.9311,0.9283,0.928,0.9242,0.9241,0.924,0.9203,0.9203,0.9203,0.9203,0.9132,0.9129,0.9126,0.9111,0,0,0.9118,0.9117,0,0,0,0,0,0,0,0,0.936,0.9353,0.9288,0.9285,0.9281,0.9231,0.9249,0.9197,0.9203,0.9232,0.9203,0.9203,0.9164,0.9159,0.9146,0.9108,0.9105,0.9118,0.9116,0.9115,0.9114,0,0,0,0,0,0,0,0.9364,0.9356,0.9284,0.9287,0.9283,0.9273,0.9266,0.9239,0.9199,0.923,0.9227,0.9219,0.9162,0.9149,0.9144,0.9104,0.9118,0.9115,0.9113,0.9112,0.905,0.905,0,0,0,0,0,0,0.9372,0.9359,0.9286,0.9282,0.9321,0.9272,0.9263,0.9247,0.92,0.9192,0.922,0.9218,0.9153,0.9147,0.9141,0.912,0.9115,0.9112,0.911,0.905,0.905,0.905,0,0,0,0,0,0,0.9374,0.9366,0.9289,0.932,0.9309,0.927,0.9253,0.9246,0.9232,0.9192,0.9185,0.9213,0.9153,0.9145,0.9119,0.9117,0.9111,0.9108,0.905,0.905,0.905,0.9078,0,0,0,0,0,0,0.9377,0.9367,0.9361,0.932,0.9308,0.9268,0.9253,0.9245,0.9228,0.9225,0.9184,0.9177,0.9152,0.9124,0.9116,0.9113,0.9106,0.905,0.905,0.905,0.9077,0.9079,0.9081,0,0,0,0,0,0.9381,0.9371,0.9361,0.9352,0.9299,0.9268,0.9261,0.9233,0.9228,0.9221,0.9196,0.9178,0.9119,0.9121,0.9113,0.9109,0.905,0.905,0.905,0.9077,0.9079,0.9081,0,0,0,0,0,0,0.9412,0.9365,0.9353,0.933,0.9303,0.9262,0.9253,0.9237,0.9211,0.9209,0.9176,0.9167,0.9144,0.9124,0.9127,0.9092,0.9083,0.9081,0.9106,0.9108,0.9109,0.9114,0.9104,0,0,0,0,0,0.9416,0.9396,0.9355,0.9339,0.9326,0.9292,0.9277,0.9259,0.9229,0.9218,0.919,0.9162,0.9137,0.9121,0.9096,0.9075,0.9065,0.9068,0.907,0.9071,0.907,0.9058,0.9058,0.905,0.905,0.905,0,0,0.9425,0.9397,0.9385,0.9344,0.9321,0.93,0.9283,0.9261,0.9245,0.9214,0.9188,0.9167,0.9134,0.911,0.9098,0.9093,0.907,0.9071,0.9073,0.9071,0.9058,0.9059,0.9059,0.905,0.905,0.905,0,0,0.9429,0.9406,0.9389,0.9367,0.9333,0.9311,0.9307,0.9268,0.9253,0.9227,0.9204,0.9184,0.9142,0.9119,0.9102,0.9099,0.9082,0.9092,0.9101,0.9089,0.909,0.909,0.9089,0.9089,0.9091,0.9091,0.9091,0,0.9443,0.9411,0.9383,0.9362,0.9345,0.9318,0.9301,0.9281,0.924,0.9229,0.9223,0.917,0.9145,0.9116,0.9116,0.9103,0.9097,0.9096,0.9092,0.9092,0.9092,0.9091,0.909,0.9092,0.9092,0.9092,0.9092,0,0.943,0.9408,0.9399,0.9362,0.9343,0.9325,0.9294,0.9278,0.9262,0.924,0.9213,0.9183,0.9152,0.9144,0.9126,0.9112,0.911,0.9099,0.9089,0.9095,0.9093,0.9092,0.9094,0.9094,0.9093,0.9093,0,0,0.9451,0.9399,0.9396,0.9379,0.934,0.9323,0.9303,0.9273,0.926,0.9234,0.9216,0.9182,0.9172,0.9152,0.9132,0.9122,0.9122,0.9112,0.9111,0.9115,0.9104,0.9113,0.9112,0.9111,0.9111,0.911,0.9107,0,0.945,0.9414,0.9388,0.9362,0.9341,0.9316,0.9299,0.9273,0.9252,0.9231,0.9208,0.9184,0.9173,0.9161,0.915,0.9124,0.9119,0.9124,0.9094,0.9093,0.9103,0.9111,0.912,0.9118,0.9106,0.9106,0.9106,0,0.9443,0.9418,0.939,0.9354,0.9344,0.933,0.93,0.9281,0.9251,0.9237,0.9216,0.9196,0.9174,0.9167,0.9136,0.914,0.9126,0.9112,0.9111,0.9107,0.91,0.9107,0.9117,0.9116,0.9104,0.9104,0.9105,0,0.9461,0.942,0.9398,0.9384,0.9342,0.9332,0.9314,0.9284,0.9268,0.9242,0.9232,0.9204,0.9188,0.9167,0.914,0.9137,0.9112,0.9102,0.9099,0.91,0.9094,0.9095,0.9101,0.9086,0.9086,0.9086,0.9086,0,0.9462,0.9446,0.9406,0.9392,0.9374,0.9345,0.9327,0.9306,0.928,0.9262,0.9238,0.9221,0.9187,0.9166,0.9145,0.9123,0.9116,0.9104,0.9098,0.9105,0.9107,0.9095,0.9095,0.9086,0.9086,0.9086,0.9086,0,0.9478,0.9451,0.9426,0.9388,0.9378,0.9366,0.9333,0.9319,0.9298,0.9275,0.9268,0.9234,0.9208,0.918,0.9144,0.913,0.9109,0.9101,0.9119,0.9116,0.9114,0.9115,0.9114,0.9112,0.9098,0.9099,0.9099,0,0.948,0.9468,0.9429,0.9415,0.9398,0.9376,0.936,0.9331,0.9315,0.9281,0.9271,0.9244,0.922,0.918,0.9152,0.9125,0.9116,0.9118,0.9112,0.912,0.9116,0.9117,0.9115,0.9119,0.9119,0.912,0.912,0,0.9487,0.9475,0.9452,0.9425,0.9406,0.9384,0.936,0.935,0.9316,0.9299,0.9273,0.9255,0.922,0.9193,0.9162,0.9143,0.9126,0.9122,0.912,0.9127,0.9138,0.9132,0.9123,0.9122,0.9122,0.9122,0.9122,0.9121,0.9496,0.9484,0.9455,0.9431,0.941,0.9388,0.9373,0.935,0.9328,0.9298,0.9282,0.9256,0.9227,0.9185,0.9166,0.9145,0.914,0.9136,0.9136,0.9135,0.9137,0.9142,0.914,0.914,0.914,0.9139,0.9139,0,0.9501,0.9482,0.946,0.9428,0.9409,0.9395,0.9368,0.9353,0.9331,0.9306,0.9284,0.9254,0.9228,0.9199,0.9171,0.916,0.9151,0.9153,0.9154,0.915,0.9144,0.9149,0.9161,0.9161,0.9161,0.9161,0.9161,0.9161,0.9502,0.948,0.9464,0.9432,0.9412,0.9387,0.9373,0.9353,0.9333,0.9301,0.928,0.9261,0.9234,0.9204,0.918,0.9172,0.9162,0.9167,0.9157,0.9152,0.915,0.9148,0.9152,0.9165,0.9165,0.9164,0.9164,0.9164]},{"header":{"parameterUnit":"m.s-1","parameterCategory":1,"la1":30.2991,"la2":30.254,"lo1":-89.0895,"lo2":-89.0444,"dx":0.0017,"dy":0.0017,"nx":28,"ny":28,"refTime":"2022-11-16T09:00:00:Z","depth":0,"parameterNumber":3,"parameterNumberName":"V-component_of_WINDS"},"data":[0,0,0,0,0,0,0,0,0,0,0,0,0,0,0,0,0,0,0,0,0,0,0,0,0,0,0,0,0,0,0,0,0,0,0,0,0,0,0,0,0,0,0,0,0,0,0,0,0,0,0,0,0,0,0,0,0,0,-5.9674,-5.9675,0,-5.976,-5.9761,-5.9762,-5.9734,-5.9732,-5.973,-5.9728,-5.9811,-5.9814,-5.9818,0,0,0,0,0,0,0,0,0,0,0,0,0,-5.9481,-5.9485,-5.9674,-5.9675,-5.9676,-5.976,-5.9761,-5.9762,-5.9734,-5.9732,-5.973,-5.9728,-5.9809,-5.9814,-5.9819,0,0,0,0,0,0,0,0,0,0,0,0,0,-5.9566,-5.9486,-5.9674,-5.9673,-5.9673,-5.976,-5.9761,-5.9762,-5.9735,-5.9732,-5.9729,-5.9727,-5.9808,-5.9813,-5.9819,-5.991,0,0,-5.9837,-5.984,0,0,0,0,0,0,0,0,-5.9561,-5.9573,-5.9672,-5.9673,-5.9674,-5.9734,-5.9723,-5.9812,-5.9735,-5.9711,-5.9728,-5.9725,-5.9787,-5.9794,-5.9816,-5.9914,-5.9918,-5.9838,-5.9841,-5.9844,-5.9845,0,0,0,0,0,0,0,-5.9555,-5.9569,-5.9708,-5.9673,-5.9674,-5.9666,-5.9675,-5.974,-5.9763,-5.9713,-5.9711,-5.9722,-5.9787,-5.9811,-5.9818,-5.9919,-5.9837,-5.9843,-5.9846,-5.9849,-6.0097,-6.01,0,0,0,0,0,0,-5.9549,-5.9564,-5.9705,-5.971,-5.961,-5.9672,-5.9682,-5.9717,-5.9762,-5.9767,-5.9724,-5.9721,-5.9802,-5.9811,-5.9821,-5.9931,-5.9844,-5.9849,-5.9852,-6.0094,-6.0098,-6.0101,0,0,0,0,0,0,-5.9545,-5.9562,-5.9702,-5.9637,-5.9654,-5.9678,-5.9718,-5.972,-5.9744,-5.9771,-5.9775,-5.9745,-5.98,-5.9812,-5.9889,-5.9934,-5.9852,-5.9857,-6.0091,-6.0095,-6.01,-6.0153,0,0,0,0,0,0,-5.954,-5.9561,-5.9597,-5.9638,-5.9658,-5.977,-5.9721,-5.9724,-5.9755,-5.9751,-5.9791,-5.9795,-5.9799,-5.988,-5.9895,-5.994,-5.9862,-6.0087,-6.0093,-6.0098,-6.0147,-6.0159,-6.0169,0,0,0,0,0,-5.9533,-5.9607,-5.9599,-5.9616,-5.9703,-5.9773,-5.9784,-5.9788,-5.9759,-5.9794,-5.9812,-5.9794,-5.9927,-5.9889,-5.9904,-5.9952,-6.0084,-6.0091,-6.0098,-6.0143,-6.0157,-6.0169,0,0,0,0,0,0,-5.9567,-5.9612,-5.9604,-5.9693,-5.973,-5.9768,-5.9813,-5.9803,-5.9847,-5.9841,-5.9843,-5.9852,-5.9931,-5.9949,-5.9906,-6.0044,-6.0001,-6.0011,-6.0029,-6.0043,-6.0053,-6.0047,-5.9866,0,0,0,0,0,-5.9586,-5.964,-5.9675,-5.9751,-5.977,-5.9789,-5.9819,-5.982,-5.9857,-5.9871,-5.9894,-5.993,-5.998,-6.0012,-6.0059,-6.015,-6.0158,-6.0191,-6.0202,-6.021,-6.0219,-6.027,-6.0285,-6.0124,-6.0124,-6.0124,0,0,-5.9623,-5.9654,-5.9688,-5.9759,-5.9787,-5.9842,-5.9802,-5.9861,-5.9902,-5.988,-5.9954,-5.9973,-6.0012,-6.0097,-6.0135,-6.0114,-6.0266,-6.0219,-6.0226,-6.023,-6.0278,-6.0293,-6.0307,-6.0129,-6.0128,-6.0127,0,0,-5.972,-5.9749,-5.9816,-5.9847,-5.9891,-5.9903,-5.992,-5.996,-5.9972,-6.0048,-6.0033,-6.008,-6.0166,-6.0195,-6.0221,-6.0332,-6.0317,-6.0347,-6.0403,-6.0452,-6.0464,-6.0476,-6.0516,-6.053,-6.0356,-6.0356,-6.0356,0,-5.9761,-5.9845,-5.9851,-5.9914,-5.9945,-5.993,-5.9998,-6.0026,-6.0082,-6.0104,-6.008,-6.0189,-6.0214,-6.0306,-6.0333,-6.0355,-6.0373,-6.0342,-6.0463,-6.0474,-6.0484,-6.0523,-6.0538,-6.0359,-6.0359,-6.0358,-6.0358,0,-5.9893,-5.9952,-6.0,-6.0059,-6.0096,-6.016,-6.0175,-6.0211,-6.0209,-6.0224,-6.0301,-6.0331,-6.0385,-6.0407,-6.0404,-6.0499,-6.0484,-6.0462,-6.0418,-6.0503,-6.0539,-6.0554,-6.0364,-6.0363,-6.0362,-6.0361,0,0,-6.0013,-6.0076,-6.0094,-6.0121,-6.017,-6.0215,-6.0278,-6.0333,-6.0365,-6.0405,-6.0458,-6.0532,-6.0512,-6.0541,-6.0542,-6.0585,-6.0672,-6.0557,-6.0558,-6.0578,-6.0779,-6.0796,-6.0813,-6.0663,-6.0665,-6.0668,-6.0776,0,-6.0114,-6.0229,-6.0237,-6.034,-6.0394,-6.0382,-6.0437,-6.0473,-6.0489,-6.0536,-6.0552,-6.0605,-6.0574,-6.0592,-6.0634,-6.0652,-6.0712,-6.0645,-6.0711,-6.0713,-6.0702,-6.0832,-6.085,-6.095,-6.079,-6.0792,-6.0794,0,-6.0248,-6.0296,-6.0405,-6.0448,-6.0471,-6.0521,-6.0573,-6.0619,-6.0659,-6.0667,-6.0702,-6.0697,-6.0761,-6.0716,-6.0804,-6.0758,-6.0786,-6.0799,-6.0803,-6.0809,-6.0759,-6.0842,-6.0982,-6.0998,-6.0816,-6.0814,-6.0812,0,-6.0326,-6.0416,-6.0494,-6.0517,-6.0569,-6.0605,-6.0628,-6.0666,-6.0699,-6.0743,-6.0765,-6.0816,-6.0844,-6.0882,-6.0891,-6.0857,-6.098,-6.0935,-6.0988,-6.0988,-6.1014,-6.1012,-6.1161,-6.1031,-6.1031,-6.1031,-6.1031,0,-6.0439,-6.0506,-6.053,-6.0577,-6.0652,-6.0661,-6.0734,-6.0755,-6.0789,-6.0839,-6.083,-6.0877,-6.0886,-6.0935,-6.0942,-6.1014,-6.1027,-6.1034,-6.1036,-6.1036,-6.1035,-6.1054,-6.1047,-6.1035,-6.1034,-6.1033,-6.1033,0,-6.0538,-6.0556,-6.064,-6.0684,-6.0697,-6.075,-6.0787,-6.0832,-6.0847,-6.0911,-6.0927,-6.095,-6.1007,-6.102,-6.1087,-6.1091,-6.1178,-6.1172,-6.1165,-6.1165,-6.1217,-6.1213,-6.1384,-6.1407,-6.1262,-6.1263,-6.1264,0,-6.0609,-6.0661,-6.0711,-6.0746,-6.0772,-6.0827,-6.0862,-6.0872,-6.0908,-6.0959,-6.0998,-6.1055,-6.1101,-6.1192,-6.1214,-6.1265,-6.1261,-6.1317,-6.1268,-6.1267,-6.1262,-6.126,-6.1265,-6.1327,-6.1328,-6.1329,-6.133,0,-6.0733,-6.0741,-6.0792,-6.0848,-6.0891,-6.0934,-6.0975,-6.1004,-6.1019,-6.106,-6.1121,-6.1157,-6.1227,-6.1283,-6.1335,-6.1357,-6.1347,-6.1346,-6.1361,-6.1362,-6.1356,-6.1361,-6.1192,-6.1342,-6.1341,-6.134,-6.1339,-6.1339,-6.0821,-6.0867,-6.0911,-6.0969,-6.1002,-6.1042,-6.1087,-6.1109,-6.116,-6.122,-6.1222,-6.1288,-6.1327,-6.1396,-6.1422,-6.1472,-6.1454,-6.1476,-6.1481,-6.1486,-6.1492,-6.1349,-6.1481,-6.1481,-6.148,-6.148,-6.148,0,-6.0946,-6.0974,-6.1028,-6.1088,-6.1133,-6.1122,-6.1168,-6.1207,-6.1265,-6.1304,-6.135,-6.1419,-6.1475,-6.1502,-6.1556,-6.1591,-6.1588,-6.1605,-6.1603,-6.1608,-6.1504,-6.1486,-6.1607,-6.1607,-6.1607,-6.1607,-6.1607,-6.1607,-6.1016,-6.1095,-6.1107,-6.1202,-6.1229,-6.1295,-6.1323,-6.1359,-6.139,-6.1469,-6.1516,-6.1534,-6.1568,-6.1625,-6.1675,-6.1681,-6.1702,-6.1722,-6.1726,-6.1628,-6.1615,-6.1603,-6.1586,-6.1726,-6.1726,-6.1825,-6.1826,-6.1827]}]]